Weather in Dabuzha

Russia / Kaluga Oblast     54°13′32″N   34°49′15″E
temp.,
°C
wind,
m/s
gust,
m/s
humid.,
%
clouds,
%
prec.,
mm/h
press.,
hPa
HPBL,
m
17 may, tue
tue1700:00+4wnw4118911 0.0 1011318
03:00+3w41292100 0.0 1010374
06:00+5wnw5138297 0.0 1010516
09:00+9nw71163100 0.0 10091310
12:00+11nw7950100 0.0 10081970
15:00+10nnw6970100 0.2 10091243
18:00+7nnw61088100 0.9 1009814
21:00+6nw51095100 5.0 1009937
18 may, wed
wed1800:00+6n51095100 0.1 1010612
03:00+6n5109199 0.1 1011567
06:00+5n5109384 0.1 1013523
09:00+8n688061 0.1 1015730
12:00+13n685118 0.0 10151779
15:00+11nnw6866100 0.1 10161201
18:00+10nw487045 0.1 10171118
21:00+6nw22825 0.1 101931
19 may, thu
thu1900:00+6wnw357882 0.0 1019118
03:00+4w36875 0.0 1020105
06:00+5w411835 0.0 1019262
09:00+10wnw6115796 0.0 1018722
12:00+14wnw71048100 0.0 10181495
15:00+15wnw694784 0.0 10171941
18:00+13wnw5966100 0.4 10171052
21:00+9wnw378599 0.8 1017137
20 may, fri
fri2000:00+9ne1189100 0.1 101831
03:00+8nw259297 0.2 1018157
06:00+6n259433 0.0 1019158
09:00+10nne2360100 0.0 1019602
12:00+13nne2341100 0.0 10181431
15:00+13ene1241100 0.0 10171527
18:00+11e3461100 0.0 1016307
21:00+9ese2271100 0.1 101546
21 may, sat
sat2100:00+7ese3790100 0.4 1013260
03:00+6e499198 0.5 1012367
06:00+7ene61080100 0.0 1012846
09:00+8ene596652 0.0 1012898
12:00+12ene784584 0.0 10122125
15:00+12ene6749100 0.0 10122018
18:00+12ene475412 0.0 10131772
21:00+7ne367560 0.1 1014112